Date String (YYYY-MM-DD hh:mm:ss) UTC,Instrument flags,Ambient pressure (hPa),Sample flow (lpm),Bypass flow (lpm),Sample temperature (°C),Ambient temperature (°C),ASC tube jacket temperature (°C),LED temperature (°C),Box temperature (°C),Sample RH (%),Span deviation,Mass concentration (μg/m³),Mass concentration (μg/m³),Mass concentration (μg/m³)
DateTimeUTC,F1_M11,P_M11,Q1_M11,Q2_M11,T1_M11,T2_M11,T3_M11,T4_M11,T5_M11,U1_M11,ZSPAN_M11,X2_M11,X0_M11,X1_M11
2021-11-12 18:00:00,,0832.3,4.99,0.00,23.7,23.0,00.0,32.6,25.5,12.0,0000.0,0003.74,0013.24,0002.84
2021-11-12 18:01:00,,0832.2,5.02,0.00,23.7,23.1,00.0,32.6,25.6,11.9,0000.0,0003.73,0012.73,0002.81
2021-11-12 18:02:00,,0832.2,4.99,0.00,23.8,23.1,00.0,32.6,25.6,11.9,0000.0,0003.70,0013.14,0002.79
2021-11-12 18:03:00,,0832.2,4.99,0.00,23.8,23.1,00.0,32.7,25.6,11.9,0000.0,0003.68,0012.64,0002.79
2021-11-12 18:04:00,,0832.2,5.01,0.00,23.8,23.1,00.0,32.7,25.6,11.9,0000.0,0003.67,0012.69,0002.79
2021-11-12 18:05:00,,0832.2,5.00,0.00,23.8,23.1,00.0,32.7,25.6,11.9,0000.0,0003.67,0012.28,0002.80
2021-11-12 18:06:00,,0832.3,4.99,0.00,23.8,23.1,00.0,32.7,25.6,11.8,0000.0,0003.70,0012.19,0002.80
2021-11-12 18:07:00,,0832.2,5.01,0.00,23.8,23.1,00.0,32.7,25.6,11.8,0000.0,0003.71,0012.44,0002.81
2021-11-12 18:08:00,,0832.2,5.01,0.00,23.8,23.1,00.0,32.7,25.6,11.9,0000.0,0003.68,0012.23,0002.79
2021-11-12 18:09:00,,0832.2,5.01,0.00,23.8,23.1,00.0,32.7,25.6,11.8,0000.0,0003.68,0012.66,0002.81
2021-11-12 18:10:00,,0832.1,4.99,0.00,23.8,23.1,00.0,32.7,25.7,11.8,0000.0,0003.63,0012.88,0002.80
2021-11-12 18:11:00,,0832.1,5.01,0.00,23.8,23.1,00.0,32.8,25.7,11.7,0000.0,0003.63,0012.37,0002.79
2021-11-12 18:12:00,,0832.1,4.99,0.00,23.8,23.1,00.0,32.8,25.7,11.8,0000.0,0003.61,0012.77,0002.78
2021-11-12 18:13:00,,0832.0,5.00,0.00,23.9,23.1,00.0,32.8,25.7,11.8,0000.0,0003.64,0012.62,0002.78
2021-11-12 18:14:00,,0832.0,5.00,0.00,23.9,23.2,00.0,32.8,25.7,11.7,0000.0,0003.69,0012.71,0002.75
2021-11-12 18:15:00,,0832.0,5.00,0.00,23.9,23.2,00.0,32.8,25.7,11.7,0000.0,0003.71,0012.91,0002.75
2021-11-12 18:16:00,,0832.1,5.00,0.00,23.9,23.2,00.0,32.8,25.8,11.6,0000.0,0003.73,0012.74,0002.77
2021-11-12 18:17:00,,0832.1,5.00,0.00,23.9,23.2,00.0,32.8,25.7,11.6,0000.0,0003.74,0013.69,0002.77
2021-11-12 18:18:00,,0832.1,4.99,0.00,23.9,23.2,00.0,32.8,25.8,11.7,0000.0,0003.79,0014.32,0002.79
2021-11-12 18:19:00,,0832.0,5.00,0.00,23.9,23.3,00.0,32.8,25.7,11.6,0000.0,0003.79,0014.98,0002.80
2021-11-12 18:20:00,,0832.0,5.00,0.00,24.0,23.3,00.0,32.9,25.8,11.6,0000.0,0003.79,0015.10,0002.81
2021-11-12 18:21:00,,0832.0,5.00,0.00,24.0,23.3,00.0,32.9,25.9,11.6,0000.0,0003.81,0014.45,0002.82
2021-11-12 18:22:00,,0832.0,5.01,0.00,24.0,23.4,00.0,32.9,25.9,11.6,0000.0,0003.81,0014.23,0002.83
2021-11-12 18:23:00,,0832.0,4.99,0.00,24.0,23.4,00.0,32.9,26.0,11.5,0000.0,0003.83,0014.33,0002.86
2021-11-12 18:24:00,,0832.0,5.00,0.00,24.0,23.4,00.0,32.9,26.0,11.6,0000.0,0003.92,0014.26,0002.91
2021-11-12 18:25:00,,0831.9,5.01,0.00,24.1,23.4,00.0,32.9,26.0,11.6,0000.0,0003.92,0013.99,0002.97
2021-11-12 18:26:00,,0832.0,5.01,0.00,24.1,23.4,00.0,32.9,26.0,11.5,0000.0,0003.94,0013.61,0003.01
2021-11-12 18:27:00,,0832.0,4.98,0.00,24.1,23.4,00.0,33.0,26.0,11.6,0000.0,0003.94,0013.28,0003.06
2021-11-12 18:28:00,,0832.0,5.00,0.00,24.1,23.4,00.0,33.0,26.0,11.5,0000.0,0003.98,0013.06,0003.09
2021-11-12 18:29:00,,0831.9,5.00,0.00,24.1,23.4,00.0,33.0,26.0,11.6,0000.0,0003.93,0011.58,0003.11
2021-11-12 18:30:00,,0831.9,4.99,0.00,24.1,23.4,00.0,33.0,26.0,11.5,0000.0,0003.97,0011.26,0003.14
2021-11-12 18:31:00,,0831.7,5.01,0.00,24.1,23.4,00.0,33.0,26.0,11.6,0000.0,0004.02,0010.48,0003.16
2021-11-12 18:32:00,,0831.7,5.00,0.00,24.1,23.5,00.0,33.0,26.0,11.5,0000.0,0004.07,0010.42,0003.17
2021-11-12 18:33:00,,0831.7,4.99,0.00,24.2,23.5,00.0,33.0,26.0,11.5,0000.0,0004.10,0009.62,0003.20
2021-11-12 18:34:00,,0831.8,5.01,0.00,24.2,23.5,00.0,33.1,26.1,11.5,0000.0,0004.11,0009.97,0003.21
2021-11-12 18:35:00,,0831.7,5.01,0.00,24.2,23.5,00.0,33.1,26.1,11.5,0000.0,0004.10,0010.18,0003.22
2021-11-12 18:36:00,,0831.7,5.00,0.00,24.2,23.5,00.0,33.1,26.1,11.5,0000.0,0004.09,0010.33,0003.22
2021-11-12 18:37:00,,0831.8,4.99,0.00,24.2,23.5,00.0,33.1,26.1,11.5,0000.0,0004.12,0010.37,0003.24
2021-11-12 18:38:00,,0831.7,5.01,0.00,24.2,23.5,00.0,33.1,26.1,11.5,0000.0,0004.16,0010.89,0003.24
2021-11-12 18:39:00,,0831.7,5.00,0.00,24.2,23.5,00.0,33.1,26.1,11.5,0000.0,0004.17,0010.75,0003.25
2021-11-12 18:40:00,,0831.7,5.00,0.00,24.2,23.5,00.0,33.1,26.1,11.5,0000.0,0004.18,0010.79,0003.25
2021-11-12 18:41:00,,0831.8,5.00,0.00,24.3,23.6,00.0,33.1,26.1,11.5,0000.0,0004.15,0011.49,0003.24
2021-11-12 18:42:00,,0831.7,5.00,0.00,24.3,23.6,00.0,33.2,26.2,11.5,0000.0,0004.16,0012.96,0003.23
2021-11-12 18:43:00,,0831.7,5.00,0.00,24.3,23.6,00.0,33.2,26.2,11.4,0000.0,0004.15,0013.89,0003.23
2021-11-12 18:44:00,,0831.6,5.01,0.00,24.3,23.6,00.0,33.2,26.2,11.4,0000.0,0004.12,0013.80,0003.23
2021-11-12 18:45:00,,0831.6,5.00,0.00,24.3,23.6,00.0,33.2,26.2,11.5,0000.0,0004.14,0012.98,0003.23
2021-11-12 18:46:00,,0831.6,5.00,0.00,24.3,23.6,00.0,33.2,26.2,11.5,0000.0,0004.13,0012.96,0003.23
2021-11-12 18:47:00,,0831.6,4.99,0.00,24.3,23.7,00.0,33.2,26.2,11.5,0000.0,0004.14,0013.97,0003.22
2021-11-12 18:48:00,,0831.6,5.01,0.00,24.4,23.7,00.0,33.2,26.3,11.5,0000.0,0004.10,0014.35,0003.20
2021-11-12 18:49:00,,0831.7,4.99,0.00,24.4,23.7,00.0,33.3,26.3,11.5,0000.0,0004.08,0013.99,0003.18
2021-11-12 18:50:00,,0831.7,5.00,0.00,24.4,23.7,00.0,33.3,26.3,11.5,0000.0,0004.08,0014.25,0003.18
2021-11-12 18:51:00,,0831.7,5.01,0.00,24.4,23.7,00.0,33.3,26.3,11.5,0000.0,0004.08,0014.92,0003.18
2021-11-12 18:52:00,,0831.6,4.98,0.00,24.5,23.8,00.0,33.3,26.3,11.5,0000.0,0004.12,0014.67,0003.19
2021-11-12 18:53:00,,0831.5,4.99,0.00,24.5,23.8,00.0,33.3,26.4,11.5,0000.0,0004.07,0013.69,0003.20
2021-11-12 18:54:00,,0831.6,5.01,0.00,24.5,23.8,00.0,33.3,26.4,11.6,0000.0,0004.06,0012.95,0003.19
2021-11-12 18:55:00,,0831.6,4.99,0.00,24.5,23.8,00.0,33.4,26.4,11.5,0000.0,0004.08,0013.65,0003.18
2021-11-12 18:56:00,,0831.6,5.00,0.00,24.5,23.9,00.0,33.4,26.4,11.6,0000.0,0004.06,0014.31,0003.17
2021-11-12 18:57:00,,0831.5,5.01,0.00,24.5,23.9,00.0,33.4,26.4,11.6,0000.0,0004.04,0014.82,0003.16
2021-11-12 18:58:00,,0831.5,5.01,0.00,24.6,24.0,00.0,33.4,26.5,11.6,0000.0,0004.01,0014.96,0003.14
2021-11-12 18:59:00,,0831.4,5.00,0.00,24.6,24.0,00.0,33.4,26.5,11.6,0000.0,0004.00,0014.35,0003.13
